Regional Weather Roundup
Issued by NWS San Diego, CA

Home | Current Version | Previous Version | Text Only | Print | Product List | Glossary On
Versions: 1 2 3 4 5 6 7 8 9 10 11 12 13 14 15 16 17 18 19 20 21 22 23 24 25 26 27 28 29 30 31 32 33 34 35 36 37 38 39 40 41 42 43 44 45 46 47 48 49 50
000
ASUS46 KSGX 251711
RWRSGX

SAN DIEGO HOURLY WEATHER ROUNDUP
NATIONAL WEATHER SERVICE SAN DIEGO CA
1000 AM PDT WED MAY 25 2016

NOTE: "FAIR" INDICATES FEW OR NO CLOUDS BELOW 12,000 FEET WITH NO
SIGNIFICANT WEATHER AND/OR OBSTRUCTIONS TO VISIBILITY.

CAZ042-043-060-061-PZZ750-775-251800-

GREATER SAN DIEGO AREA

CITY           SKY/WX    TMP DP  RH WIND       PRES   REMARKS
LINDBERGH FLD  PTSUNNY   67  49  52 W9        30.11R
POINT LOMA       N/A     66  51  58 W12         N/A
NATIONAL CITY    N/A     65  54  68 W3        30.11R
CHULA VISTA      N/A     64  55  70 W5        30.02R
IMPERIAL BEACH PTSUNNY   67  52  58 W8        30.11R
BROWN FIELD    PTSUNNY   64  50  60 NW6       30.09R
MIRAMAR MCAS   PTSUNNY   67  47  48 NW6       30.09R
MONTGOMERY FLD PTSUNNY   66  49  54 W9        30.09R

$$

NORTH SAN DIEGO COUNTY

CITY           SKY/WX    TMP DP  RH WIND       PRES   REMARKS
CAMP PENDLETON PTSUNNY   64  51  62 W9G17     30.08R
OCEANSIDE AP   PTSUNNY   64  50  60 SW12      30.09R
OCEANSIDE HBR    N/A     63  55  75 W6        30.12R
VISTA            N/A     62  52  68 W1        30.07R
CARLSBAD       MOSUNNY   64  50  60 W9        30.09R
DEL MAR          N/A     64  57  78 CALM      30.13R
LA JOLLA SCRIP   N/A     63  55  75 W7        30.10R
FALLBROOK        N/A     66  54  65 S7        30.05R
ESCONDIDO        N/A     66  51  58 CALM      30.10R
SAN MARCOS       N/A     64  51  63 W8        30.07R
POWAY            N/A     66  51  58 CALM      30.10S

$$

EAST SAN DIEGO COUNTY

CITY           SKY/WX    TMP DP  RH WIND       PRES   REMARKS
RAMONA         CLOUDY    60  45  57 W9        30.09R
SANTEE LAKES     N/A     65  52  62 W3        30.08R
LA MESA          N/A     61  51  70 CALM      30.02R
DESCANSO N       N/A     52  44  74 CALM      29.99R
MT. LAGUNA OBS   N/A     41  35  80 W8        29.65R
CAMPO            N/A     58  43  57 W10       30.04S

$$

ORANGE COUNTY AND THE LOS ANGELES BASIN

CITY           SKY/WX    TMP DP  RH WIND       PRES   REMARKS
JOHN WAYNE AP  PTSUNNY   65  49  56 VRB7      30.09R
LAKE FOREST FR   N/A     64  47  53 W6        29.98S
HUNTINGTON BCH   N/A     67  54  63 W12       30.11R
LOS ALAMITOS   PTSUNNY   66  52  60 SW12      30.08R
FULLERTON      PTSUNNY   66  49  54 VRB5      30.07S
LONG BEACH     PTSUNNY   65  50  58 W8        30.09R
L.A. AP        PTSUNNY   62  51  67 W10       30.09R
L.A. DOWNTOWN  CLOUDY    65  52  62 VRB3      30.08R

$$

THE INLAND EMPIRE

CITY           SKY/WX    TMP DP  RH WIND       PRES   REMARKS
CORONA         PTSUNNY   66  48  52 W10       30.08
CHINO          PTSUNNY   68  47  46 MISG      30.09R
ONTARIO        CLOUDY    61  44  53 W5        30.07R
SAN BERNARDINO PTSUNNY   64  46  52 SW6       30.08R
RIVERSIDE AP   PTSUNNY   64  45  49 VRB3      30.08R
MORENO VALLEY    N/A     60  52  74 NW2       28.19S
MARCH ARB      MOSUNNY   62  45  54 W5        30.07S
HORSETHIEF CYN   N/A     64  43  46 W5        30.09S
PERRIS           N/A     60  49  67 S2        30.09R
HEMET EAST       N/A     58  44  61 CALM      29.97R
FRENCH VALLEY  PTSUNNY   61  45  55 S9        30.08S
TEMECULA         N/A     63  50  63 SW7       30.04R

$$

SAN BERNARDINO AND RIVERSIDE COUNTY MOUNTAINS

CITY           SKY/WX    TMP DP  RH WIND       PRES   REMARKS
BIG BEAR AP    SUNNY     46  16  29 W7        30.07R
ANGELUS OAKS     N/A     44  37  77 CALM      29.98S
PINE COVE        N/A     43  38  83 W6        30.06R

$$

SOUTHERN DESERT INCLUDING THE COACHELLA VALLEY

CITY           SKY/WX    TMP DP  RH WIND       PRES   REMARKS
PALM SPRINGS   SUNNY     73  37  27 W21G32    29.96F
THOUSAND PALMS   N/A     73  41  32 NW20      29.94S
PALM DESERT      N/A     76  42  29 CALM      29.24
THERMAL        SUNNY     75  38  26 VRB3      29.93S
BLYTHE         SUNNY     73  45  36 CALM      29.94F
IMPERIAL AP    SUNNY     74  39  28 W14       29.96S
EL CENTRO NAS  MOSUNNY   74  37  26 W14       29.98S
MEXICALI       SUNNY     86  59  39 W14       29.97R

$$

UPPER DESERT

CITY           SKY/WX    TMP DP  RH WIND       PRES   REMARKS
VICTORVILLE AP MOSUNNY   61  39  44 SW8       30.03F
HESPERIA         N/A     60  42  51 SW5       30.13S
PALMDALE       MOSUNNY   60  43  53 SW16      30.04R
LANCASTER      MOSUNNY   63  44  50 SW20      30.04R
EDWARDS AFB    MOSUNNY   63  44  48 SW16G28   29.99S
DAGGETT        SUNNY     67  40  37 W15G26    29.99S
29 PALMS N     MOSUNNY   68  34  28 N8        30.05S
NEEDLES        SUNNY     78  39  24 VRB5      29.93S

$$

REGIONAL REPORTS

CITY           SKY/WX    TMP DP  RH WIND       PRES   REMARKS
SANTA BARBARA  CLOUDY    63  50  62 S6        30.08S
SANDBERG       CLOUDY    48  42  80 MISG      30.09S
LAS VEGAS NV   MOSUNNY   72  35  25 CALM      29.93S
PHOENIX AZ     SUNNY     79  32  18 S5        29.95S
TIJUANA        PTSUNNY   63  48  59 NW6       30.12R
ENSENADA NW      N/A     64  32  30 W2        30.08R

$$

OFFSHORE ISLANDS

CITY           SKY/WX    TMP DP  RH WIND       PRES   REMARKS
CATALINA ARPT  PTSUNNY   56  47  71 W9        30.11R
SAN CLEMENTE I MOSUNNY   62  53  72 W13       30.12R
SAN NICOLAS IS MOSUNNY   60  46  59 NW17      30.11R

$$

MARINE AND OFFSHORE BUOY REPORTS

STATION/POSITION SKY/WX   TEMP    WIND        PRES    SWELL
                          AIR SEA DIR/SP/G            HT/PER/DIR
                          (F)     (DEG/KT/KT) (MB)    (FT/S/D)
TANNER BANKS               60 61  300/ 10/ 12 1020.0R   2/240/16
S CLEMENTE BASIN           61 63  270/ 12/ 14 1019.4R   2/210/14
SAN NICOLAS IS.               60                N/A     2/210/14
SO. S. ROSA ISLA           57 59  320/ 17/ 21 1019.7R   3/300/10
W. S. BARBARA CH           56 56  330/ 16/ 17 1019.2R   2/300/ 9
M. S. BARBARA CH           59 59  310/  6/ 10 1019.4R
S. MONICA BASIN            59 63  240/ 10/ 12 1019.3R   2/240/15
S PEDRO CHANNEL               64                N/A
OCEANSIDE OFFSHR              66                N/A     2/210/15
TORREY PINES OTR              65                N/A     2/220/14
LA JOLLA 1                 63 67  350/  3/  4 1018.7R
SAN DIEGO BAY                 68              1019.0R
POINT LOMA SOUTH              66                N/A     2/210/13

$$




USA.gov is the U.S. government's official web portal to all federal, state and local government web resources and services.